ボレリー彗星

19P/Borrelly (2001)

English version
Home page
Updated on July 2, 2002

---------------------------------------------------------------------

・ プロフィール

・ 軌道要素

   The following improved orbital elements by Kenji Muraoka,
  are from 643 observations 1987 to 2000, including 9 Planets,
  Moon and 5 minor planets perturbations and non-gravitational
  effect of style II. The mean residual is +/- 0.86 arc seconds.

      Epoch  =  2001 Sept.  8.0  TT      JDT = 2452160.5
          T  =  2001 Sept. 14.71390      +/- 0.00426 (m.e.) TT
       Peri. =  353.37529                +/- 0.00019
       Node  =   75.42484                +/- 0.00001   (2000.0)
       Incl. =   30.32468                +/- 0.00001
          q  =    1.3581999              +/- 0.0000006 AU
          e  =    0.6238933              +/- 0.0000005
          a  =    3.6112091              +/- 0.0000014 AU
          n  =    0.14362338             +/- 0.00000009
          P  =    6.862                  +/- 0.0000041  years
         A1  =   +0.128                  +/- 0.012
         A2  =   -0.05104                +/- 0.00108

・ 星図

・ 光度変化

        m1 = 7.4 + 5 logΔ + 15.0 log r

---------------------------------------------------------------------

軌道要素は村岡健治氏の計算によるものです。
星図は StellaNavigator Ver.2.0 for Windows (アストロアーツ 編著 / アスキー出版局刊) で作成したものです。
光度グラフはComet for Windowsで作成したものです。

---------------------------------------------------------------------

Copyright(C) Seiichi Yoshida (comet@aerith.net). All rights reserved.